Tracking 27112 objects as of 28-Mar-2023
HD Live streaming from Space Station
objects crossing your sky now

STARLINK-3506

Track STARLINK-3506 now!
10-day predictions
STARLINK-3506 is classified as:


NORAD ID: 51751
Int'l Code: 2022-016AP
Perigee: 545.7 km
Apogee: 548.0 km
Inclination: 53.2 °
Period: 95.4 minutes
Semi major axis: 6917 km
RCS: Unknown
Launch date: February 21, 2022
Source: United States (US)
Launch site: AIR FORCE EASTERN TEST RANGE (AFETR)
Your satellite tracking list
Your tracking list is empty




NASA's NSSDC Master Catalog

Two Line Element Set (TLE):
1 51751U 22016AP  23086.32356288 -.00000105  00000-0  11520-4 0  9996
2 51751  53.2148 110.0919 0001609  90.6038 269.5139 15.08849916 60908
Source of the keplerian elements: AFSPC